User: anonymous   Login
Location: Caltech
(34.1382°N, 118.1253°W)
Time: 15:32:16
(UTC-07:00)
Language:

ALOS - Orbit

View from above orbital plane
View from above orbital plane
View from above satellite
View from above satellite

Ground track
Ground track

The orbit data is extracted from the following two-line orbital elements,

1 28931U 06002A   16126.92515200 +.00000321 +00000-0 +72534-4 0  9992
2 28931 097.8886 167.6230 0002191 116.4830 243.6597 14.62177509547949
Epoch (UTC): 05 May 2016 22:12:13
Eccentricity: 0.0002191
inclination: 97.8886°
perigee height: 684 km
apogee height: 688 km
right ascension of ascending node: 167.6230°
argument of perigee: 116.4830°
revolutions per day: 14.62177509
mean anomaly at epoch: 243.6597°
orbit number at epoch: 54794

The dashed part of the orbit path shows where the satellite is in the earth's shadow,  

DLR